Skip Page Navigation
NASA JPL Caltech
NASA Logo - Jet Propulsion Laboratory + View the NASA Portal
+ Center for Near-Earth Object Studies
JPL Home Earth Solar System Stars & Galaxies Technology
JPL Solar System Dynamics
BODIES ORBITS EPHEMERIDES TOOLS PHYSICAL DATA DISCOVERY FAQ SITE MAP
IMPORTANT: The SSD Announcement email list is now available. Major changes are coming in the near future, including possible hostname and/or URL changes. To be notified of such changes, subscribe to this email list.

Please visit this page for more details.


JPL Small-Body Database Browser
Search: [ help ]  
13884 (1064 T-1)
Classification: Main-belt Asteroid          SPK-ID: 2013884
Ephemeris | Orbit Diagram | Orbital Elements | Mission Design | Physical Parameters | Discovery Circumstances | Close-Approach Data ]

[ show orbit diagram ]
Orbital Elements at Epoch 2458600.5 (2019-Apr-27.0) TDB
Reference: JPL 16 (heliocentric ecliptic J2000)
 Element Value Uncertainty (1-sigma)   Units 
e .08473097273237619 4.2851e-08  
a 2.195688104814867 1.1179e-08 au
q 2.009645315876996 9.4959e-08 au
i 4.408732730478214 5.5574e-06 deg
node 354.0942620479419 5.4581e-05 deg
peri 217.441996331594 6.4664e-05 deg
M 256.6388638035359 3.792e-05 deg
tp 2458941.700119331578
(2020-Apr-02.20011933)
0.00012646 TDB
period 1188.377445134647
3.25
9.076e-06
2.485e-08
d
yr
n .3029340564093345 2.3136e-09 deg/d
Q 2.381730893752738 1.2127e-08 au
  Orbit Determination Parameters
   # obs. used (total)      593  
   data-arc span      17431 days (47.72 yr)  
   first obs. used      1971-03-24  
   last obs. used      2018-12-13  
   planetary ephem.      DE431  
   SB-pert. ephem.      SB431-N16  
   condition code      0  
   norm. resid. RMS      .53598  
   source      ORB  
   producer      Otto Matic  
   solution date      2019-Jul-12 19:24:27  

Additional Information
 Earth MOID = 1.00643 au 
 Jupiter MOID = 2.58736 au 
 T_jup = 3.660 
[ show covariance matrix ]

Ephemeris | Orbit Diagram | Orbital Elements | Mission Design | Physical Parameters | Discovery Circumstances | Close-Approach Data ]

Physical Parameter Table
Parameter Symbol Value Units Sigma Reference Notes
absolute magnitude H 15.9   n/a MPO263473  
diameter diameter 1.570 km 0.187 urn:nasa:pds:neowise_diameters_albedos::2.0[mainbelt] (http://adsabs.harvard.edu/abs/2011ApJ...741...68M)  
geometric albedo albedo 0.343   0.065 urn:nasa:pds:neowise_diameters_albedos::2.0[mainbelt] (http://adsabs.harvard.edu/abs/2011ApJ...741...68M)  

13884 (1064 T-1)          Discovered 1971-Mar-25 by van Houten, C. J., van Houten-Groeneveld, I., Gehrels, T. at Palomar
Reference: 20000222/Numbers.arcLast Updated: 2004-04-19

[ show close-approach data ]
Alternate Designations
 1064 T-1 = 1997 EL2 
Ephemeris | Orbit Diagram | Orbital Elements | Mission Design | Physical Parameters | Discovery Circumstances | Close-Approach Data ]
ABOUT SSD CREDITS/AWARDS PRIVACY/COPYRIGHT GLOSSARY LINKS
FirstGov 2019-Oct-21 21:26 UT
(server date/time)  
NASA Home Page
Site Manager:   Ryan S. Park
Webmaster  Alan B. Chamberlin